SL-8 R/B

Satellite information

Favourite Embed

Satellite Type and Status

ROCKET BODYIN ORBIT

Key statistics

Satellite SL-8 R/B at a glance.

Uptime

15774

Days in orbit

Revolutions

≈ 14.4

Per day

Orbit

LEO

Low Earth Orbit

Inclination

74.0

Latest

Satellite identification and parameters

Extended collection of information and parameters for SL-8 R/B.

Object identification

Identified? True

Debris? False

Object name: SL-8 R/B

International designator: 1982-037B

Object number (NORAD): 13149

Object ID (CCSDS): 13149

Country: COMMONWEALTH OF INDEPENDENT STATES (CIS)

Current information (Y/N): Y

RCS size: LARGE

Orbital parameters

Period: 100.243 minutes

Inclination: 74.0412 deg

SMA: 7148.197 km

Apoapsis: 778.525 km

Periapsis: 761.599 km

RAAN: 263.0499 deg

Eccentricy: 0.0011839

Argument of periapsis: 107.3942 deg

Mean anomaly: 252.8507 deg

Mean motion: 14.36507884 rev/day

Mean motion (dot): 0.00000147 rev/day2

B* drag term: 0.000059066 1/REarth

Two-line elements (TLE)

Creation date: July 4, 2025, 6:39 p.m.

Reference frame: TEME

Reference center: EARTH

Epoch: July 4, 2025, 1:59 p.m. UTC

TLE line 0: 0 SL-8 R/B

TLE line 1: 1 13149U 82037B 25185.58297881 .00000147 00000-0 59066-4 0 9999

TLE line 2: 2 13149 74.0412 263.0499 0011839 107.3942 252.8507 14.36507884259088

Live tracking on map

Real-time ground track for satellite SL-8 R/B.

In-orbit conjunctions

A list of the most updated potential collisions computed for object SL-8 R/B.

Target Orbit TCA Probability of collision Miss distance Type
COSMOS 2251 DEB LEO 2025-06-14 22:12:35 0.001223741 375.0 (m) DEBRIS
FENGYUN 1C DEB SSO 2025-03-20 04:30:17 0.0002195636 493.0 (m) DEBRIS
COSMOS 1818 COOLANT LEO 2025-03-14 06:16:33 0.0001922682 938.0 (m) DEBRIS
CZ-6A DEB SSO 2024-09-25 20:08:03 0.0001891312 835.0 (m) DEBRIS
CZ-6A DEB SSO 2024-06-11 19:33:23 0.0001733571 522.0 (m) DEBRIS

Associated space launch

Military communications satellite

SL-8 R/B was lifted into orbit during the mission ‘Kosmos-3M | Strela-2M 27’, on board a Kosmos-3M space rocket.

The launch took place on April 28, 1982, 2:52 a.m. from 132/1 (132L).

For more information about the launch, click the button.

Launch to space Kosmos-3M | Strela-2M 27
Kosmos-3M | Strela-2M 27

Agency: N/A

Status: Launch Successful

Launch date: April 28, 1982, 2:52 a.m. UTC

Rocket: Kosmos-3M

Launch pad: 132/1 (132L)

Location: Plesetsk Cosmodrome, Russian Federation

...

Latest news about this satellite

There are no fresh news available about this satellite. Check back as we update our databases every day.


Newsletter sign-up

Weekly statistics, charts and insights to help you stay on top of the space industry.